Location: Burla
(50.9568°N, 10.4983°E)
Time: 21:35:26
(UTC+00:00)

Cosmos 2278 Rocket - Pass Details

Date: 18 January 2026
Orbit: 839 x 846 km, 71.0° (Epoch: 17 February)

Event Time Altitude Azimuth Distance (km) Brightness Sun altitude
Exits shadow 04:14:17 11° 186° (S) 2,366 4.4 -27.4°
Maximum altitude 04:19:29 52° 112° (ESE) 1,035 2.9 -26.6°
Drops below altitude 10° 04:24:58 10° 37° (NE) 2,471 5.0 -25.7°
Sets 04:27:28 0° 33° (NNE) 3,411 5.8 -25.3°
